�������l�o���
Date,Time,MP-1(��Sv/h),MP-2(��Sv/h),MP-3(��Sv/h),MP-4(��Sv/h),MP-5(��Sv/h),MP-6(��Sv/h),MP-7(��Sv/h),MP-8(��Sv/h),����,����(m/s),���J
2021/01/11,00:00,0.661,0.945,0.605,1.191,0.832,0.374,0.667,0.633,��,5.3,��
2021/01/11,00:10,0.661,0.943,0.604,1.189,0.832,0.374,0.667,0.631,���쐼,3.8,��
2021/01/11,00:20,0.662,0.944,0.604,1.189,0.832,0.375,0.669,0.632,���쐼,4.2,��
2021/01/11,00:30,0.659,0.944,0.605,1.190,0.831,0.374,0.669,0.633,���쐼,4.2,��
2021/01/11,00:40,0.661,0.946,0.605,1.190,0.830,0.376,0.669,0.631,��,4.4,��
2021/01/11,00:50,0.659,0.945,0.604,1.192,0.832,0.375,0.669,0.632,��,2.3,��
2021/01/11,01:00,0.661,0.943,0.604,1.191,0.834,0.376,0.668,0.634,�k��,3.0,��
2021/01/11,01:10,0.660,0.944,0.605,1.190,0.832,0.375,0.668,0.633,�k�k��,3.7,��
2021/01/11,01:20,0.662,0.945,0.606,1.191,0.831,0.376,0.669,0.631,�k�k��,2.3,��
2021/01/11,01:30,0.661,0.944,0.605,1.190,0.833,0.375,0.670,0.632,�k��,2.6,��
2021/01/11,01:40,0.660,0.944,0.605,1.191,0.832,0.376,0.669,0.631,�k,4.6,��
2021/01/11,01:50,0.663,0.943,0.605,1.191,0.831,0.376,0.669,0.632,�k,2.6,��
2021/01/11,02:00,0.661,0.945,0.605,1.192,0.833,0.375,0.668,0.635,�k,3.2,��
2021/01/11,02:10,0.662,0.943,0.603,1.192,0.831,0.375,0.668,0.633,�k�k��,4.0,��
2021/01/11,02:20,0.660,0.947,0.604,1.190,0.833,0.376,0.668,0.633,�k�k��,3.9,��
2021/01/11,02:30,0.662,0.943,0.606,1.192,0.834,0.375,0.670,0.633,�k�k��,4.3,��
2021/01/11,02:40,0.662,0.943,0.606,1.192,0.832,0.375,0.669,0.634,�k�k��,4.0,��
2021/01/11,02:50,0.661,0.944,0.605,1.191,0.831,0.376,0.668,0.633,�k��,5.0,��
2021/01/11,03:00,0.661,0.945,0.605,1.191,0.834,0.376,0.669,0.634,�k��,5.4,��
2021/01/11,03:10,0.661,0.944,0.604,1.190,0.832,0.375,0.669,0.632,�k��,5.7,��
2021/01/11,03:20,0.661,0.943,0.606,1.190,0.833,0.374,0.668,0.633,�k��,5.6,��
2021/01/11,03:30,0.660,0.943,0.605,1.192,0.833,0.374,0.668,0.633,�k��,6.8,��
2021/01/11,03:40,0.662,0.946,0.605,1.190,0.831,0.376,0.669,0.634,�k��,7.1,��
2021/01/11,03:50,0.661,0.943,0.605,1.193,0.832,0.376,0.671,0.632,�k��,6.8,��
2021/01/11,04:00,0.662,0.944,0.604,1.193,0.831,0.376,0.670,0.633,�k��,6.1,��
2021/01/11,04:10,0.662,0.943,0.604,1.193,0.834,0.375,0.670,0.633,�k��,6.4,��
2021/01/11,04:20,0.662,0.943,0.605,1.191,0.833,0.375,0.669,0.632,�k��,5.8,��
2021/01/11,04:30,0.659,0.944,0.606,1.190,0.831,0.376,0.671,0.632,�k��,6.0,��
2021/01/11,04:40,0.661,0.942,0.605,1.193,0.831,0.374,0.669,0.633,�k��,5.5,��
2021/01/11,04:50,0.661,0.944,0.606,1.189,0.833,0.375,0.667,0.634,�k��,5.8,��
2021/01/11,05:00,0.660,0.943,0.605,1.193,0.831,0.376,0.669,0.633,�k��,6.2,��
2021/01/11,05:10,0.660,0.945,0.604,1.191,0.832,0.376,0.669,0.631,�k��,6.5,��
2021/01/11,05:20,0.662,0.943,0.606,1.191,0.834,0.375,0.668,0.633,�k��,6.0,��
2021/01/11,05:30,0.661,0.942,0.605,1.191,0.831,0.375,0.669,0.633,�k�k��,4.0,��
2021/01/11,05:40,0.660,0.946,0.605,1.190,0.832,0.374,0.672,0.633,�k�k��,2.8,��
2021/01/11,05:50,0.660,0.943,0.603,1.192,0.831,0.375,0.668,0.633,�k�k��,3.1,��
2021/01/11,06:00,0.660,0.945,0.606,1.193,0.833,0.376,0.668,0.630,�k�k��,3.2,��
2021/01/11,06:10,0.661,0.942,0.605,1.192,0.831,0.376,0.667,0.632,�k��,4.5,��
2021/01/11,06:20,0.662,0.942,0.606,1.190,0.831,0.374,0.668,0.632,���k��,4.6,��
2021/01/11,06:30,0.662,0.944,0.605,1.192,0.833,0.374,0.667,0.631,�k��,5.4,��
2021/01/11,06:40,0.661,0.944,0.604,1.191,0.832,0.374,0.668,0.632,�k��,6.0,��
2021/01/11,06:50,0.659,0.944,0.605,1.191,0.834,0.374,0.668,0.633,�k��,6.8,��
2021/01/11,07:00,0.658,0.942,0.604,1.192,0.831,0.374,0.669,0.631,�k��,8.0,��
2021/01/11,07:10,0.659,0.942,0.603,1.190,0.830,0.373,0.670,0.633,�k��,7.3,��
2021/01/11,07:20,0.659,0.943,0.605,1.190,0.833,0.373,0.667,0.631,�k��,6.2,��
2021/01/11,07:30,0.659,0.943,0.604,1.191,0.833,0.374,0.669,0.632,�k��,5.8,��
2021/01/11,07:40,0.660,0.943,0.603,1.190,0.832,0.374,0.669,0.631,�k��,6.5,��
2021/01/11,07:50,0.659,0.942,0.604,1.192,0.832,0.374,0.669,0.633,�k��,6.2,��
2021/01/11,08:00,0.659,0.941,0.603,1.189,0.832,0.372,0.670,0.632,�k��,5.2,��
2021/01/11,08:10,0.661,0.941,0.604,1.191,0.833,0.373,0.667,0.632,�k��,4.7,��
2021/01/11,08:20,0.661,0.942,0.604,1.190,0.832,0.372,0.669,0.631,�k��,3.3,��
2021/01/11,08:30,0.660,0.942,0.606,1.193,0.830,0.372,0.670,0.632,���k��,2.2,��
2021/01/11,08:40,0.661,0.942,0.604,1.193,0.832,0.374,0.670,0.634,���k��,1.4,��
2021/01/11,08:50,0.663,0.943,0.605,1.191,0.830,0.374,0.670,0.632,�k,1.7,��
2021/01/11,09:00,0.663,0.941,0.606,1.192,0.830,0.373,0.669,0.634,�k,1.5,��
2021/01/11,09:10,0.662,0.940,0.604,1.189,0.831,0.376,0.669,0.632,�k�k��,1.2,��
2021/01/11,09:20,0.661,0.940,0.604,1.192,0.831,0.375,0.670,0.633,���k��,1.7,��
2021/01/11,09:30,0.663,0.940,0.605,1.191,0.830,0.375,0.670,0.632,�k��,1.5,��
2021/01/11,09:40,0.661,0.944,0.604,1.189,0.831,0.374,0.670,0.632,�k��,3.9,��
2021/01/11,09:50,0.662,0.943,0.605,1.190,0.833,0.374,0.669,0.633,�k�k��,1.8,��
2021/01/11,10:00,0.661,0.944,0.606,1.192,0.832,0.374,0.668,0.633,��,2.3,��
2021/01/11,10:10,0.663,0.943,0.605,1.191,0.833,0.375,0.668,0.631,�k��,2.0,��
2021/01/11,10:20,0.661,0.940,0.605,1.190,0.832,0.375,0.667,0.634,�k��,1.5,��
2021/01/11,10:30,0.661,0.940,0.605,1.191,0.833,0.376,0.666,0.634,���k��,3.0,��
2021/01/11,10:40,0.662,0.943,0.605,1.191,0.832,0.375,0.668,0.633,���k��,1.5,��
2021/01/11,10:50,0.662,0.941,0.606,1.192,0.831,0.375,0.668,0.634,���k��,4.2,��
2021/01/11,11:00,0.665,0.941,0.605,1.192,0.834,0.375,0.668,0.633,�k��,3.8,��
2021/01/11,11:10,0.662,0.940,0.607,1.191,0.834,0.375,0.666,0.633,�k��,5.6,��
2021/01/11,11:20,0.662,0.943,0.606,1.192,0.833,0.377,0.668,0.634,���k��,7.6,��
2021/01/11,11:30,0.664,0.941,0.606,1.193,0.835,0.375,0.670,0.633,�k��,4.7,��
2021/01/11,11:40,0.663,0.943,0.605,1.193,0.834,0.374,0.670,0.633,�k��,5.0,��
2021/01/11,11:50,0.665,0.944,0.606,1.193,0.834,0.375,0.669,0.632,���k��,3.2,��
2021/01/11,12:00,0.666,0.944,0.605,1.196,0.836,0.375,0.670,0.631,��,4.5,��
2021/01/11,12:10,0.662,0.948,0.607,1.192,0.834,0.375,0.669,0.633,��,5.6,��
2021/01/11,12:20,0.663,0.945,0.606,1.191,0.836,0.375,0.670,0.633,���k��,7.2,��
2021/01/11,12:30,0.665,0.949,0.606,1.195,0.835,0.376,0.672,0.634,��,5.9,��
2021/01/11,12:40,0.663,0.948,0.606,1.191,0.836,0.375,0.672,0.633,��,4.2,��
2021/01/11,12:50,0.664,0.949,0.609,1.193,0.837,0.376,0.671,0.632,��,4.1,��
2021/01/11,13:00,0.664,0.945,0.607,1.194,0.837,0.376,0.672,0.632,���k��,4.1,��
2021/01/11,13:10,0.664,0.944,0.608,1.195,0.836,0.376,0.672,0.633,���쐼,2.8,��
2021/01/11,13:20,0.667,0.946,0.607,1.196,0.837,0.375,0.671,0.632,���k��,4.4,��
2021/01/11,13:30,0.665,0.946,0.606,1.196,0.836,0.375,0.670,0.631,��,4.7,��
2021/01/11,13:40,0.666,0.946,0.606,1.194,0.837,0.376,0.671,0.632,�k��,4.7,��
2021/01/11,13:50,0.665,0.946,0.607,1.194,0.837,0.375,0.671,0.634,��,3.7,��
2021/01/11,14:00,0.665,0.947,0.607,1.196,0.836,0.376,0.670,0.633,��,4.9,��
2021/01/11,14:10,0.664,0.945,0.607,1.194,0.837,0.374,0.669,0.633,��,3.1,��
2021/01/11,14:20,0.664,0.947,0.609,1.195,0.838,0.377,0.670,0.634,��,3.6,��
2021/01/11,14:30,0.664,0.947,0.608,1.194,0.834,0.376,0.670,0.633,�k��,1.9,��
2021/01/11,14:40,0.665,0.947,0.606,1.197,0.838,0.376,0.672,0.634,�k��,1.9,��
2021/01/11,14:50,0.663,0.946,0.606,1.196,0.837,0.375,0.670,0.633,���k��,3.2,��
2021/01/11,15:00,0.665,0.946,0.608,1.193,0.837,0.376,0.671,0.634,�k��,1.9,��
2021/01/11,15:10,0.663,0.947,0.607,1.196,0.838,0.375,0.671,0.633,���쐼,3.7,��
2021/01/11,15:20,0.665,0.947,0.608,1.195,0.837,0.376,0.671,0.635,�쐼,4.6,��
2021/01/11,15:30,0.664,0.947,0.607,1.195,0.840,0.375,0.670,0.634,���쐼,4.2,��
2021/01/11,15:40,0.663,0.950,0.606,1.196,0.838,0.375,0.670,0.632,�쐼,4.4,��
2021/01/11,15:50,0.664,0.948,0.606,1.194,0.840,0.375,0.669,0.632,�쐼,3.9,��
2021/01/11,16:00,0.663,0.948,0.606,1.195,0.837,0.377,0.670,0.633,���쐼,3.9,��
2021/01/11,16:10,0.665,0.947,0.606,1.194,0.836,0.374,0.671,0.631,���쐼,3.6,��
2021/01/11,16:20,0.664,0.946,0.607,1.197,0.837,0.376,0.671,0.634,���쐼,3.6,��
2021/01/11,16:30,0.663,0.947,0.607,1.195,0.839,0.376,0.669,0.634,��,2.6,��
2021/01/11,16:40,0.663,0.946,0.608,1.197,0.838,0.376,0.669,0.632,��,4.3,��
2021/01/11,16:50,0.661,0.948,0.606,1.195,0.837,0.376,0.671,0.633,��,5.4,��
2021/01/11,17:00,0.663,0.946,0.606,1.196,0.838,0.375,0.669,0.633,��,5.4,��
2021/01/11,17:10,0.663,0.947,0.604,1.195,0.835,0.376,0.669,0.632,��,4.7,��
2021/01/11,17:20,0.662,0.947,0.606,1.196,0.837,0.375,0.670,0.633,���k��,5.3,��
2021/01/11,17:30,0.662,0.947,0.606,1.194,0.836,0.376,0.668,0.634,���k��,6.9,��
2021/01/11,17:40,0.663,0.948,0.606,1.198,0.835,0.376,0.670,0.633,���k��,6.7,��
2021/01/11,17:50,0.661,0.949,0.606,1.194,0.838,0.374,0.670,0.633,���k��,6.7,��
2021/01/11,18:00,0.662,0.946,0.607,1.194,0.838,0.373,0.669,0.633,���k��,6.4,��
2021/01/11,18:10,0.664,0.947,0.605,1.194,0.837,0.374,0.670,0.634,�k��,4.7,��
2021/01/11,18:20,0.661,0.948,0.606,1.196,0.836,0.374,0.670,0.632,�k�k��,4.5,��
2021/01/11,18:30,0.661,0.948,0.607,1.197,0.836,0.376,0.670,0.633,�k�k��,4.4,��
2021/01/11,18:40,0.662,0.947,0.606,1.195,0.837,0.375,0.670,0.633,�k�k��,4.8,��
2021/01/11,18:50,0.662,0.948,0.607,1.195,0.837,0.375,0.669,0.633,�k��,5.2,��
2021/01/11,19:00,0.662,0.948,0.606,1.196,0.839,0.376,0.669,0.631,�k��,4.6,��
2021/01/11,19:10,0.661,0.948,0.606,1.195,0.838,0.375,0.670,0.634,�k�k��,4.3,��
2021/01/11,19:20,0.663,0.948,0.605,1.196,0.837,0.376,0.670,0.632,�k�k��,4.6,��
2021/01/11,19:30,0.662,0.949,0.607,1.196,0.838,0.375,0.669,0.634,�k��,3.8,��
2021/01/11,19:40,0.661,0.946,0.605,1.195,0.835,0.375,0.668,0.631,�k��,3.6,��
2021/01/11,19:50,0.661,0.947,0.605,1.198,0.836,0.375,0.670,0.633,�k��,3.3,��
2021/01/11,20:00,0.661,0.947,0.607,1.196,0.837,0.376,0.669,0.632,���k��,3.3,��
2021/01/11,20:10,0.662,0.949,0.606,1.196,0.838,0.375,0.669,0.634,���k��,4.1,��
2021/01/11,20:20,0.661,0.948,0.606,1.193,0.837,0.376,0.670,0.632,��,3.3,��
2021/01/11,20:30,0.663,0.949,0.606,1.194,0.838,0.375,0.669,0.631,��,3.2,��
2021/01/11,20:40,0.661,0.948,0.606,1.193,0.837,0.376,0.669,0.634,���k��,2.6,��
2021/01/11,20:50,0.661,0.946,0.605,1.196,0.838,0.374,0.668,0.633,���k��,3.4,��
2021/01/11,21:00,0.662,0.947,0.606,1.195,0.837,0.375,0.668,0.633,��,3.4,��
2021/01/11,21:10,0.661,0.948,0.606,1.195,0.837,0.375,0.669,0.632,��,3.9,��
2021/01/11,21:20,0.663,0.946,0.605,1.196,0.839,0.377,0.668,0.632,���k��,3.3,��
2021/01/11,21:30,0.664,0.946,0.604,1.194,0.837,0.375,0.668,0.633,���k��,1.7,��
2021/01/11,21:40,0.662,0.948,0.606,1.195,0.836,0.373,0.668,0.633,�k��,2.0,��
2021/01/11,21:50,0.662,0.947,0.606,1.195,0.835,0.375,0.669,0.632,�k��,1.5,��
2021/01/11,22:00,0.662,0.948,0.606,1.194,0.837,0.375,0.669,0.633,�k��,1.2,��
2021/01/11,22:10,0.664,0.948,0.607,1.199,0.838,0.375,0.667,0.634,�k�k��,0.9,��
2021/01/11,22:20,0.662,0.950,0.605,1.197,0.838,0.374,0.666,0.631,�k�k��,2.0,��
2021/01/11,22:30,0.664,0.947,0.606,1.195,0.838,0.376,0.669,0.633,�k�k��,1.7,��
2021/01/11,22:40,0.662,0.947,0.604,1.194,0.834,0.375,0.668,0.632,�k��,1.9,��
2021/01/11,22:50,0.661,0.946,0.605,1.194,0.838,0.375,0.667,0.633,�k��,1.5,��
2021/01/11,23:00,0.663,0.947,0.606,1.193,0.836,0.375,0.669,0.633,�k��,1.2,��
2021/01/11,23:10,0.662,0.948,0.607,1.195,0.837,0.373,0.669,0.634,���k��,1.1,��
2021/01/11,23:20,0.662,0.949,0.605,1.196,0.836,0.376,0.669,0.632,���쐼,0.9,��
2021/01/11,23:30,0.663,0.947,0.605,1.195,0.838,0.375,0.669,0.632,��,0.9,��
2021/01/11,23:40,0.664,0.947,0.606,1.198,0.839,0.375,0.668,0.633,���k��,1.5,��
2021/01/11,23:50,0.661,0.949,0.605,1.197,0.837,0.376,0.670,0.632,�k��,1.5,��
